| time (UTC) | temp C | wind direction | speed KPH | gust KPH | rain 1hr cm | rain 24hr cm | rain mn cm | humidity % | barometer mb |
| 20260507151641 | 18 | 267 | 14.5 | 9.7 | 0.00 | 0.00 | 0.00 | ||
| 20260507151136 | 18 | 321 | 4.8 | 12.9 | 0.00 | 0.00 | 0.00 | ||
| 20260507150631 | 17 | 315 | 8.0 | 22.5 | 0.00 | 0.00 | 0.00 | ||
| 20260507150126 | 18 | 339 | 6.4 | 14.5 | 0.00 | 0.00 | 0.00 | ||
| 20260507145621 | 17 | 18 | 4.8 | 11.3 | 0.00 | 0.00 | 0.00 | ||
| 20260507145117 | 17 | 288 | 1.6 | 16.1 | 0.00 | 0.00 | 0.00 | ||
| 20260507144609 | 16 | 212 | 3.2 | 9.7 | 0.00 | 0.00 | 0.00 | ||
| 20260507144104 | 16 | 274 | 4.8 | 22.5 | 0.00 | 0.00 | 0.00 | ||
| 20260507143559 | 16 | 28 | 1.6 | 14.5 | 0.00 | 0.00 | 0.00 | ||
| 20260507143055 | 16 | 347 | 4.8 | 8.0 | 0.00 | 0.00 | 0.00 | ||
| 20260507142550 | 16 | 332 | 1.6 | 11.3 | 0.00 | 0.00 | 0.00 | ||
| 20260507142045 | 16 | 314 | 4.8 | 12.9 | 0.00 | 0.00 | 0.00 | ||
| 20260507141538 | 16 | 11 | 1.6 | 12.9 | 0.00 | 0.00 | 0.00 | ||
| 20260507140528 | 15 | 24 | 1.6 | 12.9 | 0.00 | 0.00 | 0.00 | ||
| 20260507140024 | 15 | 302 | 3.2 | 11.3 | 0.00 | 0.00 | 0.00 | ||
| 20260507135519 | 13 | 281 | 4.8 | 6.4 | 0.00 | 0.00 | 0.00 | ||
| 20260507135013 | 13 | 274 | 3.2 | 9.7 | 0.00 | 0.00 | 0.00 | ||
| 20260507134505 | 13 | 221 | 8.0 | 11.3 | 0.00 | 0.00 | 0.00 | ||
| 20260507134001 | 13 | 281 | 1.6 | 9.7 | 0.00 | 0.00 | 0.00 | ||
| 20260507133456 | 13 | 285 | 6.4 | 9.7 | 0.00 | 0.00 | 0.00 | ||
| 20260507132951 | 12 | 325 | 1.6 | 12.9 | 0.00 | 0.00 | 0.00 | ||
| 20260507132446 | 13 | 284 | 8.0 | 12.9 | 0.00 | 0.00 | 0.00 | ||
| 20260507131942 | 12 | 274 | 9.7 | 14.5 | 0.00 | 0.00 | 0.00 | ||
| 20260507131434 | 12 | 294 | 6.4 | 11.3 | 0.00 | 0.00 | 0.00 | ||
| 20260507130929 | 12 | 273 | 9.7 | 11.3 | 0.00 | 0.00 | 0.00 | ||
| 20260507130424 | 12 | 305 | 8.0 | 12.9 | 0.00 | 0.00 | 0.00 | ||
| 20260507125919 | 12 | 295 | 8.0 | 14.5 | 0.00 | 0.00 | 0.00 | ||
| 20260507125415 | 12 | 262 | 9.7 | 14.5 | 0.00 | 0.00 | 0.00 | ||
| 20260507124910 | 12 | 276 | 4.8 | 9.7 | 0.00 | 0.00 | 0.00 | ||
| 20260507124402 | 12 | 300 | 3.2 | 6.4 | 0.00 | 0.00 | 0.00 | ||
| 20260507123857 | 12 | 329 | 1.6 | 6.4 | 0.00 | 0.00 | 0.00 | ||
| 20260507123353 | 12 | 354 | 0.0 | 6.4 | 0.00 | 0.00 | 0.00 | ||
| 20260507122848 | 12 | 3 | 0.0 | 8.0 | 0.00 | 0.00 | 0.00 | ||
| 20260507122343 | 11 | 298 | 0.0 | 4.8 | 0.00 | 0.00 | 0.00 | ||
| 20260507121838 | 12 | 266 | 0.0 | 4.8 | 0.00 | 0.00 | 0.00 | ||
| 20260507121330 | 12 | 318 | 3.2 | 1.6 | 0.00 | 0.00 | 0.00 | ||
| 20260507120826 | 11 | 335 | 0.0 | 1.6 | 0.00 | 0.00 | 0.00 | ||
| 20260507120321 | 11 | 232 | 0.0 | 4.8 | 0.00 | 0.00 | 0.00 | ||
| 20260507115815 | 11 | 41 | 0.0 | 4.8 | 0.00 | 0.00 | 0.00 | ||
| 20260507115310 | 11 | 326 | 1.6 | 4.8 | 0.00 | 0.00 | 0.00 | ||
| 20260507114805 | 11 | 326 | 3.2 | 3.2 | 0.00 | 0.00 | 0.00 | ||
| 20260507114258 | 11 | 353 | 0.0 | 6.4 | 0.00 | 0.00 | 0.00 | ||
| 20260507113753 | 10 | 42 | 0.0 | 1.6 | 0.00 | 0.00 | 0.00 | ||
| 20260507113248 | 11 | 312 | 0.0 | 0.0 | 0.00 | 0.00 | 0.00 | ||
| 20260507112743 | 11 | 312 | 0.0 | 1.6 | 0.00 | 0.00 | 0.00 | ||
| 20260507112238 | 10 | 294 | 0.0 | 6.4 | 0.00 | 0.00 | 0.00 | ||
| 20260507111735 | 11 | 41 | 0.0 | 6.4 | 0.00 | 0.00 | 0.00 | ||
| 20260507111226 | 11 | 340 | 0.0 | 3.2 | 0.00 | 0.00 | 0.00 | ||
| 20260507110721 | 11 | 311 | 1.6 | 4.8 | 0.00 | 0.00 | 0.00 | ||
| 20260507110216 | 11 | 326 | 0.0 | 3.2 | 0.00 | 0.00 | 0.00 | ||
| 20260507105711 | 11 | 342 | 0.0 | 3.2 | 0.00 | 0.00 | 0.00 | ||
| 20260507105206 | 11 | 346 | 0.0 | 6.4 | 0.00 | 0.00 | 0.00 | ||
| 20260507104701 | 10 | 256 | 4.8 | 3.2 | 0.00 | 0.00 | 0.00 | ||
| 20260507104153 | 11 | 18 | 0.0 | 0.0 | 0.00 | 0.00 | 0.00 | ||
| 20260507103648 | 11 | 18 | 0.0 | 0.0 | 0.00 | 0.00 | 0.00 | ||
| 20260507103144 | 11 | 18 | 0.0 | 3.2 | 0.00 | 0.00 | 0.00 | ||
| 20260507102639 | 11 | 253 | 0.0 | 0.0 | 0.00 | 0.00 | 0.00 | ||
| 20260507102134 | 11 | 253 | 0.0 | 3.2 | 0.00 | 0.00 | 0.00 | ||
| 20260507101629 | 11 | 253 | 0.0 | 0.0 | 0.00 | 0.00 | 0.00 | ||
| 20260507101121 | 11 | 342 | 0.0 | 0.0 | 0.00 | 0.00 | 0.00 | ||
| 20260507100616 | 11 | 342 | 0.0 | 0.0 | 0.00 | 0.00 | 0.00 | ||
| 20260507095606 | 11 | 342 | 0.0 | 1.6 | 0.00 | 0.00 | 0.00 | ||
| 20260507095101 | 11 | 342 | 0.0 | 3.2 | 0.00 | 0.00 | 0.00 | ||
| 20260507094555 | 11 | 42 | 0.0 | 1.6 | 0.00 | 0.00 | 0.00 | ||
| 20260507094047 | 11 | 274 | 0.0 | 3.2 | 0.00 | 0.00 | 0.00 | ||
| 20260507093542 | 11 | 214 | 0.0 | 8.0 | 0.00 | 0.00 | 0.00 | ||
| 20260507093037 | 11 | 28 | 0.0 | 8.0 | 0.00 | 0.00 | 0.00 | ||
| 20260507092532 | 12 | 356 | 0.0 | 8.0 | 0.00 | 0.00 | 0.00 | ||
| 20260507092027 | 11 | 349 | 1.6 | 9.7 | 0.00 | 0.00 | 0.00 | ||
| 20260507091522 | 12 | 326 | 0.0 | 8.0 | 0.00 | 0.00 | 0.00 | ||
| 20260507091015 | 11 | 309 | 0.0 | 8.0 | 0.00 | 0.00 | 0.00 | ||
| 20260507090510 | 11 | 308 | 0.0 | 1.6 | 0.00 | 0.00 | 0.00 | ||
| 20260507090006 | 11 | 353 | 0.0 | 3.2 | 0.00 | 0.00 | 0.00 | ||
| 20260507085500 | 11 | 307 | 0.0 | 4.8 | 0.00 | 0.00 | 0.00 | ||
| 20260507084955 | 11 | 75 | 0.0 | 0.0 | 0.00 | 0.00 | 0.00 | ||
| 20260507084450 | 12 | 75 | 0.0 | 0.0 | 0.00 | 0.00 | 0.00 | ||
| 20260507083943 | 12 | 75 | 0.0 | 0.0 | 0.00 | 0.00 | 0.00 | ||
| 20260507083438 | 11 | 75 | 0.0 | 0.0 | 0.00 | 0.00 | 0.00 | ||
| 20260507082933 | 11 | 75 | 0.0 | 0.0 | 0.00 | 0.00 | 0.00 | ||
| 20260507082428 | 11 | 75 | 0.0 | 0.0 | 0.00 | 0.00 | 0.00 | ||
| 20260507081923 | 12 | 75 | 0.0 | 3.2 | 0.00 | 0.00 | 0.00 | ||
| 20260507081418 | 12 | 75 | 0.0 | 3.2 | 0.00 | 0.00 | 0.00 | ||
| 20260507080911 | 12 | 354 | 0.0 | 1.6 | 0.00 | 0.00 | 0.00 | ||
| 20260507080406 | 12 | 308 | 0.0 | 4.8 | 0.00 | 0.00 | 0.00 | ||
| 20260507075901 | 12 | 24 | 0.0 | 4.8 | 0.00 | 0.00 | 0.00 | ||
| 20260507075356 | 12 | 45 | 0.0 | 6.4 | 0.00 | 0.00 | 0.00 | ||
| 20260507074851 | 12 | 46 | 1.6 | 6.4 | 0.00 | 0.00 | 0.00 | ||
| 20260507074346 | 12 | 7 | 0.0 | 9.7 | 0.00 | 0.00 | 0.00 | ||
| 20260507073838 | 11 | 18 | 0.0 | 8.0 | 0.00 | 0.00 | 0.00 | ||
| 20260507073333 | 12 | 13 | 0.0 | 3.2 | 0.00 | 0.00 | 0.00 | ||
| 20260507072828 | 12 | 307 | 3.2 | 3.2 | 0.00 | 0.00 | 0.00 | ||
| 20260507072324 | 12 | 58 | 0.0 | 3.2 | 0.00 | 0.00 | 0.00 | ||
| 20260507071314 | 12 | 34 | 0.0 | 6.4 | 0.00 | 0.00 | 0.00 | ||
| 20260507070301 | 12 | 77 | 0.0 | 4.8 | 0.00 | 0.00 | 0.00 | ||
| 20260507065756 | 12 | 42 | 3.2 | 9.7 | 0.00 | 0.00 | 0.00 | ||
| 20260507065252 | 12 | 41 | 1.6 | 12.9 | 0.00 | 0.00 | 0.00 | ||
| 20260507064747 | 12 | 329 | 3.2 | 11.3 | 0.00 | 0.00 | 0.00 | ||
| 20260507064242 | 12 | 293 | 4.8 | 11.3 | 0.00 | 0.00 | 0.00 | ||
| 20260507063734 | 12 | 7 | 1.6 | 17.7 | 0.00 | 0.00 | 0.00 | ||
| 20260507062725 | 12 | 325 | 1.6 | 9.7 | 0.00 | 0.00 | 0.00 | ||
| 20260507062219 | 12 | 290 | 3.2 | 8.0 | 0.00 | 0.00 | 0.00 | ||
| 20260507061714 | 12 | 46 | 0.0 | 4.8 | 0.00 | 0.00 | 0.00 | ||
| 20260507061209 | 12 | 305 | 0.0 | 0.0 | 0.00 | 0.00 | 0.00 | ||
| 20260507060701 | 12 | 305 | 0.0 | 3.2 | 0.00 | 0.00 | 0.00 | ||
| 20260507060156 | 13 | 21 | 1.6 | 6.4 | 0.00 | 0.00 | 0.00 | ||
| 20260507055652 | 12 | 336 | 1.6 | 4.8 | 0.00 | 0.00 | 0.00 | ||
| 20260507055147 | 13 | 284 | 0.0 | 6.4 | 0.00 | 0.00 | 0.00 | ||
| 20260507054642 | 12 | 319 | 1.6 | 4.8 | 0.00 | 0.00 | 0.00 | ||
| 20260507054136 | 12 | 14 | 0.0 | 3.2 | 0.00 | 0.00 | 0.00 | ||
| 20260507053627 | 12 | 23 | 0.0 | 0.0 | 0.00 | 0.00 | 0.00 | ||
| 20260507053122 | 13 | 23 | 0.0 | 3.2 | 0.00 | 0.00 | 0.00 | ||
| 20260507052617 | 13 | 23 | 0.0 | 8.0 | 0.00 | 0.00 | 0.00 | ||
| 20260507052112 | 12 | 38 | 0.0 | 6.4 | 0.00 | 0.00 | 0.00 | ||
| 20260507051607 | 12 | 42 | 0.0 | 4.8 | 0.00 | 0.00 | 0.00 | ||
| 20260507051102 | 12 | 20 | 3.2 | 4.8 | 0.00 | 0.00 | 0.00 | ||
| 20260507050554 | 12 | 238 | 0.0 | 6.4 | 0.00 | 0.00 | 0.00 | ||
| 20260507050049 | 13 | 3 | 1.6 | 8.0 | 0.00 | 0.00 | 0.00 | ||
| 20260507045544 | 13 | 263 | 3.2 | 9.7 | 0.00 | 0.00 | 0.00 | ||
| 20260507045039 | 13 | 325 | 6.4 | 8.0 | 0.00 | 0.00 | 0.00 | ||
| 20260507044534 | 12 | 6 | 3.2 | 3.2 | 0.00 | 0.00 | 0.00 | ||
| 20260507044030 | 13 | 8 | 0.0 | 3.2 | 0.00 | 0.00 | 0.00 | ||
| 20260507043522 | 12 | 30 | 0.0 | 6.4 | 0.00 | 0.00 | 0.00 | ||
| 20260507043017 | 13 | 41 | 0.0 | 8.0 | 0.00 | 0.00 | 0.00 | ||
| 20260507042639 | 13 | 319 | 3.2 | 12.9 | 0.00 | 0.00 | 0.00 | ||
| 20260507042512 | 13 | 319 | 3.2 | 12.9 | 0.00 | 0.00 | 0.00 | ||
| 20260507042007 | 13 | 6 | 0.0 | 14.5 | 0.00 | 0.00 | 0.00 | ||
| 20260507041502 | 13 | 27 | 0.0 | 12.9 | 0.00 | 0.00 | 0.00 | ||
| 20260507040957 | 13 | 48 | 1.6 | 17.7 | 0.00 | 0.00 | 0.00 | ||
| 20260507040450 | 13 | 52 | 0.0 | 14.5 | 0.00 | 0.00 | 0.00 | ||
| 20260507035945 | 14 | 20 | 1.6 | 12.9 | 0.00 | 0.00 | 0.00 | ||
| 20260507035440 | 13 | 302 | 3.2 | 9.7 | 0.00 | 0.00 | 0.00 | ||
| 20260507034935 | 13 | 25 | 3.2 | 8.0 | 0.00 | 0.00 | 0.00 | ||
| 20260507034430 | 14 | 49 | 1.6 | 11.3 | 0.00 | 0.00 | 0.00 | ||
| 20260507033925 | 13 | 350 | 1.6 | 9.7 | 0.00 | 0.00 | 0.00 | ||
| 20260507033418 | 14 | 308 | 1.6 | 14.5 | 0.00 | 0.00 | 0.00 | ||
| 20260507032913 | 13 | 323 | 8.0 | 12.9 | 0.00 | 0.00 | 0.00 | ||
| 20260507032408 | 14 | 288 | 4.8 | 14.5 | 0.00 | 0.00 | 0.00 | ||
| 20260507031903 | 13 | 252 | 4.8 | 17.7 | 0.00 | 0.00 | 0.00 | ||
| 20260507031358 | 13 | 342 | 4.8 | 16.1 | 0.00 | 0.00 | 0.00 | ||
| 20260507030854 | 14 | 326 | 9.7 | 11.3 | 0.00 | 0.00 | 0.00 | ||
| 20260507030346 | 14 | 300 | 1.6 | 11.3 | 0.00 | 0.00 | 0.00 | ||
| 20260507025841 | 14 | 17 | 0.0 | 11.3 | 0.00 | 0.00 | 0.00 | ||
| 20260507025336 | 14 | 329 | 6.4 | 9.7 | 0.00 | 0.00 | 0.00 | ||
| 20260507024831 | 13 | 333 | 1.6 | 11.3 | 0.00 | 0.00 | 0.00 | ||
| 20260507024327 | 15 | 314 | 1.6 | 16.1 | 0.00 | 0.00 | 0.00 | ||
| 20260507023822 | 14 | 307 | 3.2 | 11.3 | 0.00 | 0.00 | 0.00 | ||
| 20260507023313 | 15 | 25 | 0.0 | 14.5 | 0.00 | 0.00 | 0.00 | ||
| 20260507022808 | 15 | 300 | 6.4 | 11.3 | 0.00 | 0.00 | 0.00 | ||
| 20260507022306 | 15 | 330 | 1.6 | 8.0 | 0.00 | 0.00 | 0.00 | ||
| 20260507021759 | 15 | 307 | 1.6 | 6.4 | 0.00 | 0.00 | 0.00 | ||
| 20260507021254 | 14 | 21 | 0.0 | 6.4 | 0.00 | 0.00 | 0.00 | ||
| 20260507020749 | 15 | 18 | 3.2 | 0.0 | 0.00 | 0.00 | 0.00 | ||
| 20260507020242 | 15 | 34 | 0.0 | 0.0 | 0.00 | 0.00 | 0.00 | ||
| 20260507015737 | 15 | 34 | 0.0 | 1.6 | 0.00 | 0.00 | 0.00 | ||
| 20260507015232 | 15 | 34 | 0.0 | 1.6 | 0.00 | 0.00 | 0.00 | ||
| 20260507014727 | 15 | 253 | 0.0 | 8.0 | 0.00 | 0.00 | 0.00 | ||
| 20260507014223 | 15 | 290 | 4.8 | 3.2 | 0.00 | 0.00 | 0.00 | ||
| 20260507013718 | 15 | 311 | 0.0 | 3.2 | 0.00 | 0.00 | 0.00 | ||
| 20260507013210 | 16 | 46 | 0.0 | 0.0 | 0.00 | 0.00 | 0.00 | ||
| 20260507012706 | 16 | 46 | 0.0 | 4.8 | 0.00 | 0.00 | 0.00 | ||
| 20260507012201 | 15 | 44 | 0.0 | 4.8 | 0.00 | 0.00 | 0.00 | ||
| 20260507011656 | 16 | 46 | 0.0 | 1.6 | 0.00 | 0.00 | 0.00 | ||
| 20260507011151 | 15 | 42 | 0.0 | 12.9 | 0.00 | 0.00 | 0.00 | ||
| 20260507010646 | 15 | 284 | 0.0 | 12.9 | 0.00 | 0.00 | 0.00 | ||
| 20260507010139 | 16 | 253 | 1.6 | 8.0 | 0.00 | 0.00 | 0.00 | ||
| 20260507005634 | 16 | 336 | 4.8 | 20.9 | 0.00 | 0.00 | 0.00 | ||
| 20260507005129 | 16 | 172 | 6.4 | 27.4 | 0.00 | 0.00 | 0.00 | ||
| 20260507004624 | 16 | 269 | 9.7 | 17.7 | 0.00 | 0.00 | 0.00 | ||
| 20260507004119 | 16 | 315 | 8.0 | 17.7 | 0.00 | 0.00 | 0.00 | ||
| 20260507003615 | 16 | 23 | 8.0 | 37.0 | 0.00 | 0.00 | 0.00 | ||
| 20260507003107 | 17 | 342 | 11.3 | 27.4 | 0.00 | 0.00 | 0.00 | ||
| 20260507002602 | 17 | 290 | 12.9 | 20.9 | 0.00 | 0.00 | 0.00 | ||
| 20260507002057 | 16 | 294 | 11.3 | 24.1 | 0.00 | 0.00 | 0.00 | ||
| 20260507001552 | 17 | 349 | 3.2 | 19.3 | 0.00 | 0.00 | 0.00 | ||
| 20260507001048 | 17 | 318 | 8.0 | 20.9 | 0.00 | 0.00 | 0.00 | ||
| 20260507000543 | 17 | 297 | 8.0 | 29.0 | 0.00 | 0.00 | 0.00 | ||
| 20260507000035 | 17 | 8 | 8.0 | 20.9 | 0.00 | 0.00 | 0.00 | ||
| 20260506235530 | 17 | 305 | 12.9 | 24.1 | 0.00 | 0.00 | 0.00 | ||
| 20260506235026 | 17 | 318 | 4.8 | 29.0 | 0.00 | 0.00 | 0.00 | ||
| 20260506234521 | 16 | 255 | 19.3 | 16.1 | 0.00 | 0.00 | 0.00 | ||
| 20260506234016 | 17 | 277 | 11.3 | 12.9 | 0.00 | 0.00 | 0.00 | ||
| 20260506233511 | 17 | 277 | 6.4 | 14.5 | 0.00 | 0.00 | 0.00 | ||
| 20260506233004 | 17 | 288 | 11.3 | 14.5 | 0.00 | 0.00 | 0.00 | ||
| 20260506232458 | 17 | 260 | 9.7 | 17.7 | 0.00 | 0.00 | 0.00 | ||
| 20260506231953 | 17 | 288 | 8.0 | 20.9 | 0.00 | 0.00 | 0.00 | ||
| 20260506231448 | 17 | 277 | 11.3 | 16.1 | 0.00 | 0.00 | 0.00 | ||
| 20260506230944 | 17 | 347 | 0.0 | 14.5 | 0.00 | 0.00 | 0.00 | ||
| 20260506230439 | 17 | 311 | 3.2 | 9.7 | 0.00 | 0.00 | 0.00 | ||
| 20260506225930 | 17 | 295 | 3.2 | 12.9 | 0.00 | 0.00 | 0.00 | ||
| 20260506225425 | 19 | 280 | 4.8 | 12.9 | 0.00 | 0.00 | 0.00 | ||
| 20260506224921 | 18 | 339 | 3.2 | 11.3 | 0.00 | 0.00 | 0.00 | ||
| 20260506224416 | 20 | 298 | 4.8 | 6.4 | 0.00 | 0.00 | 0.00 | ||
| 20260506223406 | 20 | 198 | 4.8 | 6.4 | 0.00 | 0.00 | 0.00 | ||
| 20260506222859 | 20 | 188 | 3.2 | 9.7 | 0.00 | 0.00 | 0.00 | ||
| 20260506222354 | 20 | 218 | 3.2 | 6.4 | 0.00 | 0.00 | 0.00 | ||
| 20260506221849 | 20 | 184 | 3.2 | 4.8 | 0.00 | 0.00 | 0.00 | ||
| 20260506221344 | 20 | 155 | 0.0 | 3.2 | 0.00 | 0.00 | 0.00 | ||
| 20260506220840 | 20 | 219 | 0.0 | 4.8 | 0.00 | 0.00 | 0.00 | ||
| 20260506220335 | 20 | 186 | 3.2 | 4.8 | 0.00 | 0.00 | 0.00 | ||
| 20260506215827 | 20 | 153 | 1.6 | 6.4 | 0.00 | 0.00 | 0.00 | ||
| 20260506215321 | 20 | 212 | 4.8 | 6.4 | 0.00 | 0.00 | 0.00 | ||
| 20260506214815 | 19 | 194 | 4.8 | 6.4 | 0.00 | 0.00 | 0.00 | ||
| 20260506214310 | 19 | 240 | 4.8 | 8.0 | 0.00 | 0.00 | 0.00 | ||
| 20260506213806 | 20 | 198 | 3.2 | 8.0 | 0.00 | 0.00 | 0.00 | ||
| 20260506213301 | 20 | 215 | 4.8 | 6.4 | 0.00 | 0.00 | 0.00 | ||
| 20260506212753 | 20 | 214 | 4.8 | 8.0 | 0.00 | 0.00 | 0.00 | ||
| 20260506212248 | 20 | 190 | 3.2 | 6.4 | 0.00 | 0.00 | 0.00 | ||
| 20260506211743 | 20 | 139 | 3.2 | 6.4 | 0.00 | 0.00 | 0.00 | ||
| 20260506211239 | 19 | 153 | 3.2 | 6.4 | 0.00 | 0.00 | 0.00 | ||
| 20260506210733 | 18 | 143 | 3.2 | 6.4 | 0.00 | 0.00 | 0.00 | ||
| 20260506210228 | 18 | 169 | 3.2 | 9.7 | 0.00 | 0.00 | 0.00 | ||
| 20260506205719 | 18 | 142 | 9.7 | 6.4 | 0.00 | 0.00 | 0.00 | ||
| 20260506205214 | 18 | 176 | 0.0 | 0.0 | 0.00 | 0.00 | 0.00 | ||
| 20260506204710 | 18 | 176 | 0.0 | 0.0 | 0.00 | 0.00 | 0.00 | ||
| 20260506204204 | 18 | 176 | 0.0 | 0.0 | 0.00 | 0.00 | 0.00 | ||
| 20260506203658 | 18 | 176 | 0.0 | 4.8 | 0.00 | 0.00 | 0.00 | ||
| 20260506203153 | 18 | 195 | 3.2 | 4.8 | 0.00 | 0.00 | 0.00 | ||
| 20260506202645 | 18 | 138 | 0.0 | 3.2 | 0.00 | 0.00 | 0.00 | ||
| 20260506202140 | 19 | 155 | 0.0 | 3.2 | 0.00 | 0.00 | 0.00 | ||
| 20260506201636 | 18 | 193 | 3.2 | 6.4 | 0.00 | 0.00 | 0.00 | ||
| 20260506201131 | 19 | 148 | 3.2 | 9.7 | 0.00 | 0.00 | 0.00 | ||
| 20260506200626 | 18 | 153 | 4.8 | 8.0 | 0.00 | 0.00 | 0.00 | ||
| 20260506200121 | 18 | 131 | 6.4 | 12.9 | 0.00 | 0.00 | 0.00 | ||
| 20260506195614 | 19 | 153 | 6.4 | 12.9 | 0.00 | 0.00 | 0.00 | ||
| 20260506195108 | 20 | 148 | 11.3 | 9.7 | 0.00 | 0.00 | 0.00 | ||
| 20260506194603 | 20 | 170 | 8.0 | 11.3 | 0.00 | 0.00 | 0.00 | ||
| 20260506194058 | 20 | 173 | 8.0 | 11.3 | 0.00 | 0.00 | 0.00 | ||
| 20260506193049 | 19 | 105 | 9.7 | 14.5 | 0.00 | 0.00 | 0.00 | ||
| 20260506192541 | 20 | 177 | 11.3 | 14.5 | 0.00 | 0.00 | 0.00 | ||
| 20260506192036 | 20 | 179 | 6.4 | 16.1 | 0.00 | 0.00 | 0.00 | ||
| 20260506191532 | 20 | 141 | 14.5 | 17.7 | 0.00 | 0.00 | 0.00 | ||
| 20260506191027 | 20 | 186 | 8.0 | 19.3 | 0.00 | 0.00 | 0.00 | ||
| 20260506190522 | 21 | 139 | 6.4 | 14.5 | 0.00 | 0.00 | 0.00 | ||
| 20260506190018 | 21 | 181 | 9.7 | 16.1 | 0.00 | 0.00 | 0.00 | ||
| 20260506185510 | 20 | 156 | 14.5 | 16.1 | 0.00 | 0.00 | 0.00 | ||
| 20260506184500 | 20 | 176 | 8.0 | 12.9 | 0.00 | 0.00 | 0.00 | ||
| 20260506183955 | 20 | 166 | 9.7 | 16.1 | 0.00 | 0.00 | 0.00 | ||
| 20260506183450 | 19 | 208 | 9.7 | 14.5 | 0.00 | 0.00 | 0.00 | ||
| 20260506182946 | 19 | 186 | 4.8 | 17.7 | 0.00 | 0.00 | 0.00 | ||
| 20260506182438 | 19 | 174 | 11.3 | 16.1 | 0.00 | 0.00 | 0.00 | ||
| 20260506181933 | 19 | 165 | 11.3 | 16.1 | 0.00 | 0.00 | 0.00 | ||
| 20260506181428 | 18 | 215 | 9.7 | 17.7 | 0.00 | 0.00 | 0.00 | ||
| 20260506180922 | 18 | 198 | 9.7 | 17.7 | 0.00 | 0.00 | 0.00 | ||
| 20260506180417 | 19 | 205 | 8.0 | 14.5 | 0.00 | 0.00 | 0.00 | ||
| 20260506175912 | 18 | 173 | 9.7 | 16.1 | 0.00 | 0.00 | 0.00 | ||
| 20260506175404 | 18 | 158 | 9.7 | 16.1 | 0.00 | 0.00 | 0.00 | ||
| 20260506174858 | 18 | 188 | 11.3 | 17.7 | 0.00 | 0.00 | 0.00 | ||
| 20260506174354 | 18 | 172 | 6.4 | 17.7 | 0.00 | 0.00 | 0.00 | ||
| 20260506173849 | 18 | 195 | 8.0 | 20.9 | 0.00 | 0.00 | 0.00 | ||
| 20260506173344 | 18 | 187 | 9.7 | 17.7 | 0.00 | 0.00 | 0.00 | ||
| 20260506172840 | 18 | 179 | 9.7 | 16.1 | 0.00 | 0.00 | 0.00 | ||
| 20260506172332 | 18 | 172 | 9.7 | 20.9 | 0.00 | 0.00 | 0.00 | ||
| 20260506171827 | 20 | 158 | 11.3 | 24.1 | 0.00 | 0.00 | 0.00 | ||
| 20260506171323 | 20 | 148 | 12.9 | 24.1 | 0.00 | 0.00 | 0.00 | ||
| 20260506170818 | 19 | 169 | 16.1 | 27.4 | 0.00 | 0.00 | 0.00 | ||
| 20260506170313 | 18 | 191 | 12.9 | 25.7 | 0.00 | 0.00 | 0.00 | ||
| 20260506165809 | 19 | 173 | 11.3 | 25.7 | 0.00 | 0.00 | 0.00 | ||
| 20260506165301 | 19 | 174 | 14.5 | 22.5 | 0.00 | 0.00 | 0.00 | ||
| 20260506164756 | 19 | 174 | 14.5 | 27.4 | 0.00 | 0.00 | 0.00 | ||
| 20260506164252 | 18 | 163 | 20.9 | 22.5 | 0.00 | 0.00 | 0.00 | ||
| 20260506163747 | 19 | 197 | 9.7 | 20.9 | 0.00 | 0.00 | 0.00 | ||
| 20260506163242 | 18 | 170 | 12.9 | 17.7 | 0.00 | 0.00 | 0.00 | ||
| 20260506162737 | 18 | 145 | 6.4 | 17.7 | 0.00 | 0.00 | 0.00 | ||
| 20260506162229 | 18 | 132 | 8.0 | 17.7 | 0.00 | 0.00 | 0.00 | ||
| 20260506161220 | 17 | 163 | 14.5 | 25.7 | 0.00 | 0.00 | 0.00 | ||
| 20260506160715 | 17 | 186 | 12.9 | 19.3 | 0.00 | 0.00 | 0.00 | ||
| 20260506160210 | 16 | 180 | 9.7 | 19.3 | 0.00 | 0.00 | 0.00 | ||
| 20260506155704 | 17 | 114 | 6.4 | 19.3 | 0.00 | 0.00 | 0.00 | ||
| 20260506155156 | 16 | 174 | 11.3 | 20.9 | 0.00 | 0.00 | 0.00 | ||
| 20260506154650 | 16 | 191 | 14.5 | 22.5 | 0.00 | 0.00 | 0.00 | ||
| 20260506154145 | 16 | 169 | 19.3 | 20.9 | 0.00 | 0.00 | 0.00 | ||
| 20260506153641 | 16 | 200 | 14.5 | 24.1 | 0.00 | 0.00 | 0.00 | ||
| 20260506153136 | 16 | 177 | 11.3 | 22.5 | 0.00 | 0.00 | 0.00 | ||
| 20260506152631 | 16 | 162 | 19.3 | 30.6 | 0.00 | 0.00 | 0.00 | ||
| 20260506152123 | 16 | 90 | 14.5 | 25.7 | 0.00 | 0.00 | 0.00 |